Latest Weather Observations for Biloela

IDQ60801

Issued at 10:05 am EST Saturday 22 November 2014 (issued every 30 minutes, with the page automatically refreshed every 10 minutes)

About weather observations | Map of weather stations | Latest weather observations for QLD | Other Formats
Station Details ID: 039089 Name: THANGOOL AIRPORT Lat: -24.49 Lon: 150.57 Height: 193.1 m
Data from the previous 72 hours. | See also: Recent months at Biloela
Date/Time
EST
Temp
°C
App
Temp
°C
Dew
Point
Rel
Hum
%
Delta-T
°C
Wind Press
QNH
hPa
Press
MSL
hPa
Rain
since 9 am
mm
Dir
 
Spd
km/h
Gust
km/h
Spd
kts
Gust
kts
22/10:00am 30.8 31.7 19.2 50 7.6 N 13 22 7 12 1016.4 - 0.0
22/09:30am 29.3 30.1 19.0 53 6.7 N 13 20 7 11 1016.5 - 0.0
22/09:00am 28.3 29.5 19.0 57 6.0 N 11 20 6 11 1016.6 1015.8 0.0
22/08:30am 27.3 28.3 19.4 62 5.1 N 13 22 7 12 1016.7 - 0.0
22/08:04am 26.0 26.3 19.6 68 4.2 N 17 22 9 12 1016.9 - 0.0
22/08:00am 26.9 27.9 20.3 67 4.4 N 15 22 8 12 1016.9 - 0.0
22/07:30am 25.7 26.9 20.7 74 3.3 N 15 20 8 11 1016.9 - 0.0
22/07:28am 25.5 27.2 21.0 76 3.0 N 13 19 7 10 1016.9 - 0.0
22/07:00am 24.5 25.8 20.2 77 2.8 NW 13 19 7 10 1016.8 - 0.0
22/06:30am 23.9 25.8 20.6 82 2.2 NW 11 15 6 8 1016.5 - 0.0
22/06:00am 23.4 26.2 20.5 84 1.9 WNW 6 9 3 5 1016.1 1015.2 0.0
22/05:30am 23.0 25.1 20.1 84 1.9 NNW 9 13 5 7 1015.6 - 0.0
22/05:00am 23.3 25.8 20.2 83 2.0 NNW 7 9 4 5 1015.1 - 0.0
22/04:30am 23.8 25.9 20.1 80 2.4 NNW 9 9 5 5 1014.5 - 0.0
22/04:00am 24.0 26.5 20.3 80 2.4 N 7 11 4 6 1014.3 - 0.0
22/03:30am 24.0 25.3 20.1 79 2.5 N 13 19 7 10 1013.8 - 0.0
22/03:00am 24.4 25.8 20.3 78 2.7 N 13 17 7 9 1013.5 1012.6 0.0
22/02:30am 24.3 25.3 20.2 78 2.7 N 15 20 8 11 1013.3 - 0.0
22/02:00am 24.2 25.9 20.1 78 2.7 N 11 17 6 9 1013.5 - 0.0
22/01:30am 24.2 25.9 20.1 78 2.7 N 11 17 6 9 1013.4 - 0.0
22/01:00am 24.0 25.6 19.9 78 2.7 N 11 15 6 8 1013.9 - 0.0
22/12:30am 24.0 25.1 19.7 77 2.8 N 13 19 7 10 1014.1 - 0.0
22/12:00am 23.7 25.6 19.8 79 2.5 N 9 11 5 6 1014.7 1013.8 0.0
 
Date/Time
EST
Temp
°C
App
Temp
°C
Dew
Point
Rel
Hum
%
Delta-T
°C
Wind Press
QNH
hPa
Press
MSL
hPa
Rain
since 9 am
mm
Dir
 
Spd
km/h
Gust
km/h
Spd
kts
Gust
kts
21/11:30pm 23.9 26.1 19.6 77 2.8 N 7 9 4 5 1015.1 - 0.0
21/11:00pm 24.3 26.1 19.6 75 3.0 NNE 9 13 5 7 1015.0 - 0.0
21/10:30pm 24.6 25.7 19.7 74 3.2 N 13 17 7 9 1014.9 - 0.0
21/10:00pm 24.5 26.2 19.3 73 3.4 NNW 9 13 5 7 1014.9 - 0.0
21/09:30pm 25.2 26.9 19.3 70 3.8 NW 9 13 5 7 1014.3 - 0.0
21/09:00pm 25.6 27.3 19.3 68 4.1 NE 9 17 5 9 1013.8 1012.9 0.0
21/08:30pm 26.0 26.6 19.4 67 4.3 NE 15 28 8 15 1013.5 - 0.0
21/08:00pm 26.6 25.1 19.5 65 4.6 NE 26 39 14 21 1013.1 - 0.0
21/07:30pm 27.3 25.5 19.6 62 5.0 NE 28 41 15 22 1012.7 - 0.0
21/07:00pm 28.3 27.0 19.0 57 6.0 NE 24 37 13 20 1012.2 - 0.0
21/06:30pm 29.6 29.0 18.4 51 7.2 NE 19 26 10 14 1012.2 - 0.0
21/06:00pm 31.0 30.6 18.0 45 8.4 NNE 17 26 9 14 1011.8 1010.9 0.0
21/05:30pm 31.9 31.4 17.8 43 9.1 NNE 17 26 9 14 1011.4 - 0.0
21/05:00pm 32.7 32.1 18.5 43 9.3 NNE 19 24 10 13 1011.3 - 0.0
21/04:30pm 32.9 32.8 17.9 41 9.7 NNE 15 24 8 13 1011.4 - 0.0
21/04:00pm 33.2 32.3 17.8 40 10.0 NE 19 26 10 14 1011.3 - 0.0
21/03:30pm 33.7 33.7 18.2 39 10.1 NNE 15 24 8 13 1011.2 - 0.0
21/03:00pm 33.5 33.7 17.6 38 10.3 NNE 13 19 7 10 1011.6 1010.7 0.0
21/02:30pm 32.9 32.7 17.5 39 9.9 N 15 32 8 17 1012.2 - 0.0
21/02:00pm 33.0 33.6 17.6 40 10.0 NW 11 22 6 12 1012.7 - 0.0
21/01:30pm 32.7 33.3 17.7 40 9.7 NNE 11 19 6 10 1013.2 - 0.0
21/01:00pm 32.4 31.4 17.5 41 9.6 NNW 19 32 10 17 1013.7 - 0.0
21/12:30pm 32.3 31.7 18.5 44 9.0 NNW 19 28 10 15 1014.2 - 0.0
21/12:00pm 31.0 31.2 17.7 45 8.6 N 13 19 7 10 1014.6 1013.7 0.0
21/11:30am 31.3 30.8 18.6 46 8.3 N 19 28 10 15 1015.1 - 0.0
21/11:00am 31.4 31.0 19.4 49 7.9 NNW 20 35 11 19 1015.7 - 0.0
21/10:30am 30.4 29.8 18.8 50 7.6 N 20 33 11 18 1016.1 - 0.0
21/10:00am 27.9 27.6 18.3 56 6.2 NNW 17 26 9 14 1016.6 - 0.0
21/09:30am 29.0 28.2 18.4 52 6.8 N 20 24 11 13 1016.8 - 0.0
21/09:00am 28.0 28.5 20.0 61 5.3 N 17 24 9 13 1017.1 1016.3 0.0
21/08:30am 27.1 27.3 19.4 62 5.0 N 17 26 9 14 1017.3 - 0.0
21/08:00am 25.8 26.4 19.4 67 4.2 N 15 20 8 11 1017.4 - 0.0
21/07:30am 25.4 26.6 19.8 71 3.6 NNW 13 17 7 9 1017.4 - 0.0
21/07:00am 24.4 26.6 19.5 74 3.2 NNW 7 13 4 7 1017.2 - 0.0
21/06:30am 23.5 26.3 19.6 79 2.5 NW 4 7 2 4 1016.7 - 0.0
21/06:00am 23.3 26.8 19.5 79 2.4 CALM 0 0 0 0 1016.4 1015.5 0.0
21/05:30am 22.9 25.1 19.3 80 2.3 N 6 7 3 4 1015.8 - 0.0
21/05:00am 22.6 24.3 19.4 82 2.1 N 9 11 5 6 1015.2 - 0.0
21/04:30am 22.9 24.7 19.5 81 2.2 N 9 15 5 8 1015.3 - 0.0
21/04:00am 22.5 24.3 19.5 83 1.9 N 9 13 5 7 1014.7 - 0.0
21/03:30am 22.8 24.9 19.4 81 2.2 NNW 7 9 4 5 1015.1 - 0.0
21/03:00am 23.3 24.6 19.2 78 2.6 N 11 13 6 7 1014.8 1013.9 0.0
21/02:30am 23.7 24.9 19.0 75 3.0 NNE 11 15 6 8 1014.9 - 0.0
21/02:00am 23.9 25.4 19.0 74 3.1 NNE 9 15 5 8 1015.0 - 0.0
21/01:30am 24.0 24.4 18.9 73 3.3 NNE 15 24 8 13 1014.9 - 0.0
21/01:00am 23.7 25.3 19.2 76 2.9 N 9 13 5 7 1015.1 - 0.0
21/12:30am 23.3 25.4 19.0 77 2.8 N 6 11 3 6 1015.4 - 0.0
21/12:00am 23.7 24.5 19.0 75 3.0 N 13 24 7 13 1015.3 1014.4 0.0
 
Date/Time
EST
Temp
°C
App
Temp
°C
Dew
Point
Rel
Hum
%
Delta-T
°C
Wind Press
QNH
hPa
Press
MSL
hPa
Rain
since 9 am
mm
Dir
 
Spd
km/h
Gust
km/h
Spd
kts
Gust
kts
20/11:30pm 24.0 25.1 18.9 73 3.3 N 11 19 6 10 1015.8 - 0.0
20/11:00pm 24.0 25.2 19.1 74 3.1 NNE 11 19 6 10 1016.0 - 0.0
20/10:30pm 24.0 24.9 19.3 75 3.0 N 13 20 7 11 1016.2 - 0.0
20/10:00pm 24.2 25.0 19.1 73 3.3 NNE 13 22 7 12 1016.3 - 0.0
20/09:30pm 24.3 26.1 18.7 71 3.6 N 7 13 4 7 1016.4 - 0.0
20/09:00pm 24.4 25.6 19.0 72 3.5 WNW 11 20 6 11 1016.1 1015.2 0.0
20/08:30pm 24.9 23.7 19.3 71 3.6 NE 24 33 13 18 1015.4 - 0.0
20/08:00pm 25.4 22.7 19.3 69 3.9 NE 32 39 17 21 1015.0 - 0.0
20/07:30pm 26.0 24.4 19.2 66 4.4 NE 26 37 14 20 1014.8 - 0.0
20/07:00pm 26.6 25.1 19.5 65 4.6 NE 26 35 14 19 1014.4 - 0.0
20/06:30pm 27.1 26.7 19.4 62 5.0 NE 20 30 11 16 1014.1 - 0.0
20/06:00pm 28.2 27.3 19.1 57 5.9 NE 22 30 12 16 1013.5 1012.6 0.0
20/05:30pm 29.2 28.6 18.9 53 6.7 NNE 20 30 11 16 1013.1 - 0.0
20/05:00pm 30.0 29.1 19.1 52 7.1 NNE 22 30 12 16 1012.8 - 0.0
20/04:30pm 30.5 29.6 18.2 47 8.0 NNE 20 32 11 17 1012.7 - 0.0
20/04:00pm 30.6 29.7 19.0 50 7.6 NNE 22 33 12 18 1012.6 - 0.0
20/03:30pm 31.9 32.2 19.5 47 8.2 NNE 17 24 9 13 1012.7 - 0.0
20/03:00pm 30.3 30.2 18.7 50 7.6 NNE 17 24 9 13 1013.0 1012.1 0.0
20/02:30pm 30.5 29.8 18.2 47 8.0 N 19 26 10 14 1013.2 - 0.0
20/02:00pm 31.1 30.3 18.5 47 8.2 NNE 20 26 11 14 1013.5 - 0.0
20/01:30pm 32.2 31.4 18.4 44 9.0 N 20 28 11 15 1013.8 - 0.0
20/01:00pm 32.3 31.8 17.7 41 9.4 N 17 22 9 12 1014.5 - 0.0
20/12:30pm 31.9 31.7 18.5 45 8.7 N 17 26 9 14 1015.1 - 0.0
20/12:00pm 30.5 29.8 18.2 47 8.0 NNE 19 24 10 13 1015.7 1014.8 0.0
20/11:30am 29.6 29.2 18.1 50 7.4 NNE 17 26 9 14 1016.3 - 0.0
20/11:00am 28.8 28.3 17.0 49 7.5 N 15 30 8 16 1016.6 - 0.0
20/10:30am 28.7 28.5 17.6 51 7.1 N 15 22 8 12 1017.1 - 0.0
20/10:00am 27.5 27.7 17.7 55 6.2 N 13 20 7 11 1017.5 - 0.0
20/09:30am 26.9 27.2 18.7 60 5.3 N 15 22 8 12 1017.7 - 0.0
20/09:00am 26.8 27.0 18.6 60 5.3 N 15 24 8 13 1017.7 1016.9 18.0
20/08:30am 26.4 28.7 19.8 67 4.3 NNW 7 11 4 6 1018.0 - -
20/08:00am 24.7 26.5 20.4 77 2.8 NW 11 15 6 8 1018.0 - -
20/07:30am 24.0 25.7 19.3 75 3.0 W 9 13 5 7 1017.5 - -
20/07:00am 23.0 25.9 19.8 82 2.1 WSW 4 7 2 4 1017.2 - -
20/06:30am 21.9 25.2 19.1 84 1.8 CALM 0 0 0 0 1016.7 - -
20/06:00am 20.4 23.6 18.9 91 0.9 CALM 0 0 0 0 1016.3 1015.4 -
20/05:30am 18.8 21.4 17.6 93 0.7 CALM 0 0 0 0 1016.1 - -
20/05:00am 18.7 21.3 17.5 93 0.7 CALM 0 0 0 0 1015.6 - -
20/04:30am 18.7 21.3 17.4 92 0.8 CALM 0 0 0 0 1015.4 - -
20/04:00am 18.9 21.2 17.6 92 0.8 W 2 7 1 4 1015.1 - -
20/03:30am 19.1 21.3 17.4 90 1.0 W 2 6 1 3 1015.0 - -
20/03:00am 19.5 21.8 17.8 90 1.1 NNW 2 7 1 4 1015.1 1014.2 -
20/02:30am 20.0 22.8 18.0 88 1.2 CALM 0 4 0 2 1015.3 - -
20/02:00am 20.4 22.3 18.5 89 1.2 S 6 7 3 4 1015.4 - -
20/01:30am 20.9 22.8 18.5 86 1.5 ESE 6 9 3 5 1015.3 - -
20/01:00am 21.4 22.8 18.6 84 1.8 ESE 9 13 5 7 1016.1 - -
20/12:30am 21.3 24.0 18.7 85 1.6 SE 2 9 1 5 1017.0 - -
20/12:00am 21.4 23.3 18.6 84 1.8 SE 6 9 3 5 1016.9 1016.1 -
 
Date/Time
EST
Temp
°C
App
Temp
°C
Dew
Point
Rel
Hum
%
Delta-T
°C
Wind Press
QNH
hPa
Press
MSL
hPa
Rain
since 9 am
mm
Dir
 
Spd
km/h
Gust
km/h
Spd
kts
Gust
kts
19/11:30pm 21.5 24.1 18.3 82 2.0 NNW 2 9 1 5 1016.1 - -
19/06:00pm 21.4 21.2 19.7 90 1.1 E 20 30 11 16 1015.1 1014.2 7.8
19/05:30pm 21.6 21.9 19.5 88 1.3 ENE 17 24 9 13 1014.9 - 2.0
19/05:00pm 22.9 20.9 18.4 76 2.8 ESE 26 48 14 26 1013.5 - 0.0
19/04:30pm 25.3 20.9 16.7 59 5.3 E 35 54 19 29 1012.1 - 0.0
19/04:18pm 25.9 20.6 16.2 55 6.0 E 39 57 21 31 1011.7 - 0.0
19/04:10pm 27.6 20.7 14.6 45 7.9 E 44 57 24 31 1011.2 - 0.0
19/04:00pm 33.4 33.0 16.3 36 10.9 NW 13 15 7 8 1010.6 - 0.0
19/03:30pm 34.0 32.9 16.4 35 11.2 NNW 17 24 9 13 1010.5 - 0.0
19/03:00pm 35.3 35.1 16.6 33 12.0 N 13 15 7 8 1010.5 1009.6 0.0
19/02:30pm 36.1 35.6 17.7 33 12.0 WNW 17 28 9 15 1011.6 - 0.0
19/02:00pm 34.6 34.9 17.8 37 10.9 NW 13 28 7 15 1012.5 - 0.0
19/01:30pm 33.7 34.2 17.4 37 10.5 WNW 11 17 6 9 1013.4 - 0.0
19/01:00pm 34.1 33.6 16.9 36 11.0 W 15 20 8 11 1013.9 - 0.0
19/12:30pm 33.4 32.6 18.0 40 10.0 N 19 22 10 12 1014.4 - 0.0
19/12:00pm 33.6 32.7 18.1 39 10.1 NW 20 32 11 17 1014.7 1013.8 0.0
19/11:30am 33.4 31.8 18.3 40 9.9 NNW 24 30 13 16 1015.1 - 0.0
19/11:00am 32.8 32.4 18.9 43 9.1 NW 19 26 10 14 1015.8 - 0.0
19/10:30am 32.4 31.7 18.2 42 9.2 NNW 19 30 10 16 1016.2 - 0.0

Other Formats:

Comma delimited format used in spreadsheet applications
http://www.bom.gov.au/fwo/IDQ60801/IDQ60801.94376.axf

JavaScript Object Notation format (JSON) in row-major order
http://www.bom.gov.au/fwo/IDQ60801/IDQ60801.94376.json